Showing default

ELEKTRON 3, 829

Orbit data source: Space-Track

ELEKTRON 3, 829 is a payload satellite owned by OKB-1 (CIS) that was launched on Fri, 10 Jul 1964 UTC via a VOSTOK 8K72 launch vehicle from the Tyuratam Missile And Space Complex (TTMTR). Payload-class satellites include a variety of spacecraft equipped with specific instruments for various scientific and technological missions. These include communications satellites like Starlink; space stations such as the ISS; scientific satellites like the Hubble; Earth observation satellites from companies like Planet Labs, Umbra, and HawkEye 360; GPS; miniature CubeSats for education and research; and military/defense satellites.

Loading next visibility...
Identifier
829, 1964-038A
Orbit
Active
Country
Flag of CISCIS
Related business
Manufacturer
OKB-1
Mission
Spacecraft
Bus & Motor
OBJECT D, Unknown motor
Mass
350 kg wet, 350 kg dry
Launch date (UTC)
1964-07-10 (62 years ago)
Launch vehicle
VOSTOK 8K72
Launch site
Tyuratam Missile And Space Complex (TTMTR)
Object type
Payload
Rocket body
Debris
Shape & HBR
Unknown
Radar Cross Section
Large (>1 m²)

Expand to show TLE details & history
Last TLE update: 10 hours ago

TLE from 10 hours ago
0 ELEKTRON 3
1 00829U 64038A   26119.47764411  .00000623  00000-0  18199-3 0  9995
2 00829  60.8129 268.3619 2939847 335.9879  12.7396  9.21190341 10962
Epoch: 2026-04-29T11:27Z
TLE epoch observation values (Epoch: 2026-04-29T11:27:48.451Z)
Latitude
-0.00002°
Longitude
-121.02803°
Altitude
547.104 km
Speed
8.584 km/s
True Right ascension
17h 53m 26s
True Declination
0° 00' 00"
Sunlit
Object was in full shadow at epoch
Visualization orbit readout
Latitude
Unknown
Longitude
Unknown
Altitude
Unknown
Speed
Unknown
Apparent Right ascension
Unknown
Apparent Declination
Unknown
Sunlit
N/A
Visualization observer readout
Local Sidereal Time
04:55:38
Azimuth
Unknown
Elevation
Unknown
Doppler factor
Unknown
Orbital elements
Apogee altitude
6,059.304 km
Perigee altitude
407.897 km
Semi-major axis
9,611.737 km
Eccentricity
0.29398
Inclination
60.8129°
RAAN
268.3619°
Arg. of periapsis
335.9879°
True anomaly
24.10263°
Mean anomaly
12.7396°
Eccentric anomaly
17.92324°
Mean motion
2.30325 °/min
Orbital period
156.3 mins
BSTAR
0.00018199
Loading maneuver chart data...
Computing Atmospheric mass density...
Loading historical data...
Loading historical data...
Loading historical data...
Loading historical data...
Loading historical data...
Loading historical data...
Loading historical data...

Documentation

Showing up to 5 results
|